Date String (YYYY-MM-DD hh:mm:ss) UTC,Instrument flags,Ambient pressure (hPa),Sample flow (lpm),Bypass flow (lpm),Sample temperature (°C),Ambient temperature (°C),ASC tube jacket temperature (°C),LED temperature (°C),Box temperature (°C),Sample RH (%),Span deviation,Mass concentration (μg/m³),Mass concentration (μg/m³),Mass concentration (μg/m³)
DateTimeUTC,F1_M11,P_M11,Q1_M11,Q2_M11,T1_M11,T2_M11,T3_M11,T4_M11,T5_M11,U1_M11,ZSPAN_M11,X2_M11,X0_M11,X1_M11
2022-12-26 16:00:00,,0830.7,4.99,0.00,21.4,22.2,00.0,30.0,23.5,19.3,0000.0,0004.17,0008.92,0003.98
2022-12-26 16:01:00,,0830.7,5.03,0.00,21.5,21.8,00.0,30.1,23.5,19.1,0000.0,0004.20,0009.20,0004.00
2022-12-26 16:02:00,,0830.6,4.98,0.00,21.5,21.4,00.0,30.2,23.5,19.1,0000.0,0004.22,0009.18,0004.02
2022-12-26 16:03:00,,0830.6,4.98,0.00,21.6,21.1,00.0,30.2,23.5,19.1,0000.0,0004.23,0009.19,0004.03
2022-12-26 16:04:00,,0830.6,5.04,0.00,21.6,20.9,00.0,30.2,23.4,19.1,0000.0,0004.25,0009.23,0004.04
2022-12-26 16:05:00,,0830.6,5.02,0.00,21.6,20.8,00.0,30.3,23.4,19.0,0000.0,0004.27,0008.38,0004.06
2022-12-26 16:06:00,,0830.6,5.01,0.00,21.6,20.8,00.0,30.3,23.4,18.9,0000.0,0004.28,0007.74,0004.08
2022-12-26 16:07:00,,0830.6,4.97,0.00,21.6,20.7,00.0,30.3,23.4,18.9,0000.0,0004.28,0007.12,0004.08
2022-12-26 16:08:00,,0830.6,4.96,0.00,21.6,20.7,00.0,30.3,23.4,18.9,0000.0,0004.28,0007.10,0004.08
2022-12-26 16:09:00,,0830.6,5.01,0.00,21.6,20.6,00.0,30.4,23.4,18.8,0000.0,0004.32,0007.30,0004.10
2022-12-26 16:10:00,,0830.6,5.03,0.00,21.6,20.6,00.0,30.4,23.4,18.8,0000.0,0004.36,0007.43,0004.12
2022-12-26 16:11:00,,0830.6,5.02,0.00,21.7,20.7,00.0,30.4,23.5,18.8,0000.0,0004.41,0007.23,0004.14
2022-12-26 16:12:00,,0830.6,4.98,0.00,21.7,20.8,00.0,30.4,23.5,18.8,0000.0,0004.43,0007.69,0004.15
2022-12-26 16:13:00,,0830.6,4.98,0.00,21.7,20.8,00.0,30.4,23.5,18.8,0000.0,0004.42,0007.65,0004.15
2022-12-26 16:14:00,,0830.6,4.98,0.00,21.7,20.8,00.0,30.4,23.5,18.8,0000.0,0004.40,0007.58,0004.17
2022-12-26 16:15:00,,0830.6,5.04,0.00,21.7,20.7,00.0,30.4,23.5,18.9,0000.0,0004.40,0007.88,0004.17
2022-12-26 16:16:00,,0830.6,5.00,0.00,21.7,20.7,00.0,30.5,23.5,19.0,0000.0,0004.41,0007.95,0004.18
2022-12-26 16:17:00,,0830.6,4.99,0.00,21.7,20.6,00.0,30.5,23.5,18.9,0000.0,0004.43,0007.89,0004.20
2022-12-26 16:18:00,,0830.6,4.96,0.00,21.7,20.6,00.0,30.5,23.5,18.9,0000.0,0004.50,0007.99,0004.25
2022-12-26 16:19:00,,0830.5,4.99,0.00,21.7,20.6,00.0,30.5,23.5,19.0,0000.0,0004.55,0008.03,0004.30
2022-12-26 16:20:00,,0830.6,5.03,0.00,21.7,20.6,00.0,30.5,23.6,18.9,0000.0,0004.61,0008.06,0004.36
2022-12-26 16:21:00,,0830.6,5.02,0.00,21.7,20.6,00.0,30.5,23.6,18.9,0000.0,0004.62,0008.00,0004.41
2022-12-26 16:22:00,,0830.6,4.98,0.00,21.8,20.6,00.0,30.5,23.6,19.0,0000.0,0004.64,0007.96,0004.44
2022-12-26 16:23:00,,0830.6,4.97,0.00,21.8,20.6,00.0,30.5,23.6,19.0,0000.0,0004.63,0007.86,0004.46
2022-12-26 16:24:00,,0830.7,4.99,0.00,21.8,20.6,00.0,30.5,23.6,18.9,0000.0,0004.66,0007.03,0004.50
2022-12-26 16:25:00,,0830.8,5.02,0.00,21.8,20.6,00.0,30.5,23.6,18.8,0000.0,0004.71,0006.99,0004.56
2022-12-26 16:26:00,,0830.7,5.03,0.00,21.8,20.6,00.0,30.6,23.6,18.7,0000.0,0004.79,0007.21,0004.61
2022-12-26 16:27:00,,0830.7,4.97,0.00,21.8,20.6,00.0,30.6,23.7,18.7,0000.0,0004.87,0007.04,0004.66
2022-12-26 16:28:00,,0830.6,4.98,0.00,21.8,20.7,00.0,30.6,23.7,18.8,0000.0,0004.92,0006.91,0004.69
2022-12-26 16:29:00,,0830.6,5.03,0.00,21.8,20.7,00.0,30.6,23.7,18.8,0000.0,0004.93,0006.87,0004.71
2022-12-26 16:30:00,,0830.6,5.03,0.00,21.8,20.7,00.0,30.6,23.7,18.8,0000.0,0004.94,0006.85,0004.73
2022-12-26 16:31:00,,0830.6,5.02,0.00,21.8,20.7,00.0,30.6,23.7,18.8,0000.0,0004.94,0006.81,0004.74
2022-12-26 16:32:00,,0830.7,4.97,0.00,21.8,20.7,00.0,30.6,23.7,18.8,0000.0,0004.96,0006.84,0004.75
2022-12-26 16:33:00,,0830.7,4.99,0.00,21.9,20.7,00.0,30.6,23.7,18.8,0000.0,0004.98,0006.92,0004.77
2022-12-26 16:34:00,,0830.8,5.01,0.00,21.9,20.7,00.0,30.6,23.7,18.8,0000.0,0005.00,0007.02,0004.79
2022-12-26 16:35:00,,0830.8,5.02,0.00,21.9,20.7,00.0,30.7,23.7,18.9,0000.0,0005.04,0007.14,0004.81
2022-12-26 16:36:00,,0830.8,5.01,0.00,21.9,20.7,00.0,30.7,23.7,19.0,0000.0,0005.06,0007.22,0004.83
2022-12-26 16:37:00,,0830.7,4.97,0.00,21.9,20.7,00.0,30.7,23.7,18.9,0000.0,0005.07,0007.20,0004.85
2022-12-26 16:38:00,,0830.7,4.96,0.00,21.9,20.7,00.0,30.7,23.7,19.2,0000.0,0005.05,0007.04,0004.85
2022-12-26 16:39:00,,0830.8,5.00,0.00,21.9,20.7,00.0,30.7,23.7,19.2,0000.0,0005.04,0006.98,0004.86
2022-12-26 16:40:00,,0830.9,5.03,0.00,21.9,20.8,00.0,30.7,23.8,19.3,0000.0,0005.03,0006.93,0004.86
2022-12-26 16:41:00,,0830.9,5.04,0.00,21.9,20.8,00.0,30.7,23.8,19.2,0000.0,0005.03,0006.88,0004.87
2022-12-26 16:42:00,,0830.8,4.97,0.00,21.9,20.9,00.0,30.7,23.8,19.2,0000.0,0005.05,0006.97,0004.88
2022-12-26 16:43:00,,0830.8,4.97,0.00,21.9,20.9,00.0,30.7,23.8,19.0,0000.0,0005.08,0007.70,0004.90
2022-12-26 16:44:00,,0830.9,5.03,0.00,21.9,20.9,00.0,30.7,23.8,19.1,0000.0,0005.10,0007.93,0004.90
2022-12-26 16:45:00,,0830.9,5.04,0.00,21.9,20.9,00.0,30.7,23.8,18.8,0000.0,0005.11,0007.90,0004.91
2022-12-26 16:46:00,,0830.9,5.00,0.00,22.0,21.0,00.0,30.8,23.8,18.7,0000.0,0005.11,0007.95,0004.91
2022-12-26 16:47:00,,0830.9,4.98,0.00,22.0,21.0,00.0,30.8,23.8,18.7,0000.0,0005.12,0007.97,0004.92
2022-12-26 16:48:00,,0830.9,4.99,0.00,22.0,21.0,00.0,30.8,23.9,18.7,0000.0,0005.13,0008.00,0004.92
2022-12-26 16:49:00,,0831.0,5.04,0.00,22.0,21.0,00.0,30.8,23.9,18.6,0000.0,0005.12,0008.01,0004.91
2022-12-26 16:50:00,,0830.9,5.00,0.00,22.0,21.0,00.0,30.8,23.9,18.5,0000.0,0005.13,0008.05,0004.90
2022-12-26 16:51:00,,0830.9,4.97,0.00,22.0,21.0,00.0,30.8,23.9,18.6,0000.0,0005.17,0008.14,0004.89
2022-12-26 16:52:00,,0830.9,4.97,0.00,22.0,21.0,00.0,30.8,23.9,18.4,0000.0,0005.19,0008.23,0004.87
2022-12-26 16:53:00,,0830.9,5.03,0.00,22.0,20.9,00.0,30.8,23.8,18.4,0000.0,0005.18,0008.26,0004.85
2022-12-26 16:54:00,,0830.9,5.01,0.00,22.0,20.9,00.0,30.8,23.8,18.4,0000.0,0005.14,0007.80,0004.83
2022-12-26 16:55:00,,0831.0,5.00,0.00,22.0,20.9,00.0,30.8,23.8,18.6,0000.0,0005.12,0007.53,0004.80
2022-12-26 16:56:00,,0830.9,4.96,0.00,22.0,21.0,00.0,30.9,23.9,18.8,0000.0,0005.12,0007.51,0004.79
2022-12-26 16:57:00,,0830.9,4.99,0.00,22.0,21.0,00.0,30.9,23.9,18.7,0000.0,0005.09,0007.43,0004.76
2022-12-26 16:58:00,,0830.9,5.03,0.00,22.1,21.1,00.0,30.9,23.9,18.6,0000.0,0005.07,0007.41,0004.72
2022-12-26 16:59:00,,0830.8,5.00,0.00,22.1,21.1,00.0,30.9,23.9,18.7,0000.0,0005.06,0007.52,0004.69
